Home > Weather > Changchun > Past weeks

Flag for China Past Weather in Changchun, Jilin, China — Yesterday and Last 2 Weeks

Now
72 °F

Clear.


Feels Like: 71 °F
Forecast: 60 / 87 °F
Wind: 3 mph from South

Location: Changchun Airport

Current Time: Jul 26, 2016 at 10:08:58 PM

Latest Report: Jul 26, 2016 at 9:00 PM


Visibility: 10 mi

Pressure: 29.65 "Hg

Humidity: 83%

Dew Point: 66 °F

Location of ChangchunLocation

Past Weather in Changchun — Graph

°F

Changchun Temperature Yesterday

Maximum temperature yesterday: 77 °F (at 9:00 AM)
Minimum temperature yesterday: 63 °F (at 7:00 PM)
Average temperature yesterday: 69 °F

High & Low Weather Summary for the Past Weeks

 TemperatureHumidityPressure
High88 °F (Jul 12, 1:00 PM)94% (Jul 13, 3:00 AM)29.92 "Hg (Jul 13, 3:00 AM)
Low59 °F (Jul 15, 2:00 AM)39% (Jul 14, 2:00 PM)29.50 "Hg (Jul 12, 1:00 PM)
Average73 °F74%29.73 "Hg
* Reported Jul 11 8:00 PM — Jul 26 8:00 PM, Changchun, Weather by CustomWeather, © 2016

Note: Actual official high and low records may vary slightly from our data, if they occured in-between our weather recording intervals... More about our weather records

Advertising

Changchun Weather History for the Previous 24 Hours

Scroll right to see more
 ConditionsComfort  
Time TempWeatherWind HumidityBarometerVisibility
8:00 PM
Tue, Jul 26
72 °FPassing clouds.3 mph83%29.65 "HgN/A
7:00 PM73 °FPassing clouds.3 mph78%29.65 "HgN/A
6:00 PM77 °FPassing clouds.1 mph65%29.65 "HgN/A
5:00 PM79 °FPassing clouds.1 mph54%29.65 "HgN/A
4:00 PM79 °FPassing clouds.No wind58%29.65 "HgN/A
3:00 PM77 °FPassing clouds.3 mph65%29.65 "HgN/A
2:00 PM77 °FScattered clouds.6 mph61%29.65 "HgN/A
1:00 PM77 °FScattered clouds.6 mph57%29.65 "HgN/A
12:00 PM77 °FPassing clouds.3 mph61%29.65 "HgN/A
11:00 AM75 °FPassing clouds.3 mph61%29.68 "HgN/A
10:00 AM73 °FScattered clouds.1 mph65%29.68 "HgN/A
9:00 AM72 °FScattered clouds.6 mph69%29.68 "HgN/A
8:00 AM68 °FScattered clouds.3 mph78%29.68 "HgN/A
7:00 AM66 °FLow clouds.3 mph88%29.68 "Hg4 mi
6:00 AM64 °FFog.1 mph94%29.68 "Hg2 mi
5:00 AM64 °FFog.1 mph88%29.68 "Hg2 mi
4:00 AM64 °FFog.1 mph88%29.68 "Hg2 mi
3:00 AM64 °FFog.1 mph88%29.65 "Hg2 mi
2:00 AM64 °FFog.3 mph88%29.65 "Hg2 mi
1:00 AM63 °FLight rain. Mostly cloudy.3 mph94%29.65 "Hg2 mi
12:00 AM63 °FLight rain. Mostly cloudy.6 mph88%29.62 "Hg2 mi
11:00 PM
Mon, Jul 25
63 °FLight rain. Mostly cloudy.6 mph94%29.62 "Hg2 mi
10:00 PM63 °FLight rain. Mostly cloudy.6 mph88%29.65 "Hg2 mi
Weather by CustomWeather, © 2016

See weather overviewHow to use our weather pages